Daegu Air Base
RKTN : now visible

Airfield :











YOU CAN JOIN US ON...

 
LOGIN :

Register | Disclaimer

   EN    FR    IT 

 









Legend :    VFR   Marginal VFR   IFR   Intensive IFR   Very Intensive IFR
Visi :
Ceiling :
>= 8 km
>= 3000ft
5 to 8 km
1000 to 3000 ft
1500m to 5 km
500 to 1000 ft
800 to 1500m
200 to 500 ft
< 800m
< 200 ft
Symbols :   Thunderstorms  Fog  Heavy snow  Heavy precipitations  Wind > 20 kt






- Airport Elevation : 116 ft
- IATA code : TAE


RKTN - Daegu Air Base

CURRENT METAR :
  • 212200Z 08002KT CAVOK 01/M06 Q1026

EXPIRED METARs :
  • 212100Z 11001KT CAVOK 01/M06 Q1027
  • 212000Z 11001KT 9999 FEW030 BKN100 01/M08 Q1027

TAF TAF RKTN
Valid from the 21 at 18:00 until the 23 at 00:00 UTC


211700Z 2118/2224 13006KT CAVOK TN01/2119Z TX06/2206Z
BECMG 2120/2121 9999 SCT030 BKN100
BECMG 2209/2210 4800 -RA BR SCT015 OVC030
BECMG 2211/2212 3200 BKN015 OVC030



MET'MAP, your aeronautical weather chart ! - Copyright ORBIFLY December 2007 - Disclaimer

ORBIFLY MET'MAP TEAM :

Programming & Development : Alexandra Zaïnal
Concept & original design : Baudouin d'Aumeries
Assistance for programming : Marc-Olivier Méhu
Technical & hardware support : Manuel Goepfert

Contact : metmap@orbifly.com




SOURCES & CREDITS :

   NOAA       Earth
Advisory